Missoula, MT

3:53 PM MDT on July 20, 2017 (GMT -0600)
Missoula International

Weather History for KMSO - October, 2013

Change the Weather History Date:

Friday, October 18, 2013

  Actual Average Record
Temperature  
Mean Temperature 38 °F 44 °F  
Max Temperature 55 °F 57 °F 75 °F (1973)
Min Temperature 21 °F 32 °F 12 °F (1905)
Degree Days  
Heating Degree Days 27 21  
Month to date heating degree days 395 313  
Since 1 July heating degree days 596 638  
Cooling Degree Days 0 0  
Month to date cooling degree days 0 0  
Year to date cooling degree days 579 332  
Moisture  
Dew Point 27 °F    
Average Humidity 73    
Maximum Humidity 100    
Minimum Humidity 45    
Precipitation  
Precipitation 0.00 in 0.02 in 0.49 in (1934)
Month to date precipitation 0.04 0.50  
Year to date precipitation 7.77 11.70  
Snow  
Snow 0.00 in - - ()
Month to date snowfall 0.0  
Year to date snowfall 27.4  
Since 1 July snowfall T  
Snow Depth 0.00 in    
Sea Level Pressure  
Sea Level Pressure 30.33 in    
Wind  
Wind Speed 0 mph (SSW)    
Max Wind Speed 6 mph    
Max Gust Speed 8 mph    
Visibility 5 miles    
Events Fog    
T = Trace of Precipitation, MM = Missing Value Source: NWS Daily Summary

Daily Weather History Graph

Daily Weather History Graph

Search for Another Location

Airport or City:

Trip Planner

Search our weather history database for the weather conditions in past years. The results will help you decide how hot, cold, wet, or windy it might be!

Date:

Astronomy

Oct. 18, 2013 Rise Set
Actual Time 7:59 AM MDT 6:43 PM MDT
Civil Twilight 7:28 AM MDT 7:13 PM MDT
Nautical Twilight 6:52 AM MDT 7:49 PM MDT
Astronomical Twilight 6:17 AM MDT 8:24 PM MDT
Moon 6:33 PM MDT (10/18) 7:39 AM MDT (10/18)
Length of Visible Light 11h 45m
Length of Day
10h 44m
Full, 100% of the Moon is Illuminated
Oct 18
Full
Oct 18
Full
Oct 26
Last Quarter
Nov 3
New
Nov 9
First Quarter

Hourly Weather History & Observations

Time (MDT) Temp. Windchill Dew Point Humidity Pressure Visibility Wind Dir Wind Speed Gust Speed Precip Events Conditions
12:53 AM 30.9 °F - 28.9 °F 92% 30.38 in 10.0 mi Calm Calm - N/A   Clear
1:53 AM 30.0 °F - 27.0 °F 88% 30.38 in 10.0 mi Calm Calm - N/A   Clear
2:53 AM 28.9 °F - 28.0 °F 96% 30.38 in 9.0 mi Calm Calm - N/A   Clear
3:53 AM 27.0 °F - 25.0 °F 92% 30.38 in 10.0 mi Calm Calm - N/A   Clear
4:53 AM 27.0 °F - 25.0 °F 92% 30.38 in 10.0 mi Calm Calm - N/A   Clear
5:53 AM 21.9 °F 15.7 °F 19.9 °F 92% 30.41 in 2.5 mi West 4.6 mph - N/A   Partly Cloudy
5:57 AM 21.2 °F 14.9 °F 21.2 °F 100% 30.33 in 1.2 mi West 4.6 mph - N/A   Scattered Clouds
6:00 AM 21.2 °F 16.4 °F 21.2 °F 100% 30.33 in 0.8 mi WNW 3.5 mph - N/A   Mist
6:35 AM 21.2 °F - 21.2 °F 100% 30.33 in 1.2 mi Calm Calm - N/A   Mostly Cloudy
6:40 AM 21.2 °F - 21.2 °F 100% 30.33 in 2.5 mi Calm Calm - N/A   Scattered Clouds
6:53 AM 23.0 °F - 21.0 °F 92% 30.42 in 8.0 mi Calm Calm - N/A   Partly Cloudy
7:10 AM 21.2 °F - 21.2 °F 100% 30.33 in 3.0 mi Calm Calm - N/A   Mostly Cloudy
7:32 AM 21.2 °F - 19.4 °F 93% 30.33 in 1.5 mi Calm Calm - N/A   Overcast
7:34 AM 21.2 °F - 21.2 °F 100% 30.33 in 0.8 mi Calm Calm - N/A   Overcast
7:50 AM 23.0 °F - 21.2 °F 93% 30.33 in 0.2 mi Calm Calm - N/A Fog Light Freezing Fog
7:53 AM 24.1 °F - 23.0 °F 96% 30.42 in 0.2 mi Calm Calm - N/A Fog Light Freezing Fog
8:10 AM 23.0 °F 18.4 °F 21.2 °F 93% 30.33 in 0.5 mi SE 3.5 mph - N/A Fog Light Freezing Fog
8:15 AM 23.0 °F 18.4 °F 21.2 °F 93% 30.33 in 1.2 mi SE 3.5 mph - N/A   Mostly Cloudy
8:17 AM 23.0 °F 17.0 °F 21.2 °F 93% 30.33 in 2.5 mi SE 4.6 mph - N/A   Mostly Cloudy
8:26 AM 23.0 °F 18.4 °F 21.2 °F 93% 30.33 in 1.2 mi ESE 3.5 mph - N/A   Mostly Cloudy
8:29 AM 23.0 °F - 21.2 °F 93% 30.33 in 0.2 mi Calm Calm - N/A Fog Light Freezing Fog
8:53 AM 25.0 °F - 24.1 °F 96% 30.43 in 0.2 mi Calm Calm - N/A Fog Light Freezing Fog
9:22 AM 26.6 °F - 26.6 °F 100% 30.34 in 0.5 mi Calm Calm - N/A Fog Light Freezing Fog
9:30 AM 26.6 °F - 26.6 °F 100% 30.34 in 0.2 mi Calm Calm - N/A Fog Light Freezing Fog
9:53 AM 27.0 °F - 27.0 °F 100% 30.44 in 0.2 mi Calm Calm - N/A Fog Light Freezing Fog
10:26 AM 28.4 °F - 28.4 °F 100% 30.34 in 0.8 mi Calm Calm - N/A   Overcast
10:33 AM 30.2 °F - 28.4 °F 93% 30.34 in 1.0 mi Calm Calm - N/A   Overcast
10:35 AM 30.2 °F - 28.4 °F 93% 30.34 in 0.5 mi Calm Calm - N/A Fog Light Freezing Fog
10:53 AM 30.0 °F - 30.0 °F 100% 30.43 in 0.2 mi Calm Calm - N/A Fog Light Freezing Fog
11:00 AM 30.2 °F - 30.2 °F 100% 30.33 in 0.5 mi Calm Calm - N/A Fog Light Freezing Fog
11:15 AM 30.2 °F - 30.2 °F 100% 30.33 in 1.2 mi Calm Calm - N/A   Overcast
11:19 AM 32.0 °F - 30.2 °F 93% 30.33 in 2.0 mi Calm Calm - N/A   Overcast
11:32 AM 32.0 °F - 32.0 °F 100% 30.32 in 3.0 mi Calm Calm - N/A   Overcast
11:53 AM 33.1 °F - 30.9 °F 92% 30.40 in 8.0 mi Calm Calm - N/A   Scattered Clouds
12:53 PM 41.0 °F - 32.0 °F 70% 30.36 in 10.0 mi Calm Calm - N/A   Clear
1:53 PM 46.9 °F - 33.1 °F 59% 30.31 in 10.0 mi Calm Calm - N/A   Clear
2:53 PM 50.0 °F - 32.0 °F 50% 30.27 in 10.0 mi Calm Calm - N/A   Clear
3:53 PM 53.1 °F - 32.0 °F 45% 30.25 in 10.0 mi Calm Calm - N/A   Clear
4:53 PM 54.0 °F - 32.0 °F 43% 30.22 in 10.0 mi Calm Calm - N/A   Clear
5:53 PM 54.0 °F - 32.0 °F 43% 30.22 in 10.0 mi Calm Calm - N/A   Clear
6:53 PM 48.9 °F - 33.1 °F 54% 30.23 in 10.0 mi Calm Calm - N/A   Clear
7:53 PM 43.0 °F 41.3 °F 30.9 °F 62% 30.23 in 10.0 mi NW 3.5 mph - N/A   Clear
8:53 PM 39.9 °F - 30.0 °F 68% 30.25 in 10.0 mi Calm Calm - N/A   Clear
9:53 PM 39.0 °F - 30.0 °F 70% 30.26 in 10.0 mi Calm Calm - N/A   Clear
10:53 PM 37.0 °F - 30.0 °F 76% 30.26 in 10.0 mi Calm Calm - N/A   Clear
11:53 PM 34.0 °F - 30.0 °F 85% 30.27 in 10.0 mi Calm Calm - N/A   Clear